Location: �perlecques
(50.8057°N, 2.1521°E)
Time: 08:11:12
(UTC+00:00)

ERS-1 Rocket - Pass Details

Date: 09 April 2020
Orbit: 753 x 757 km, 98.5° (Epoch: 24 May)

Event Time Altitude Azimuth Distance (km) Brightness Sun altitude
Exits shadow 20:46:59 36° 122° (ESE) 1,179 3.4 -18.9°
Maximum altitude 20:48:40 53° 68° (ENE) 932 3.2 -19.1°
Drops below altitude 10° 20:53:33 10° 353° (N) 2,293 6.1 -19.6°
Sets 20:55:54 0° 349° (N) 3,222 7.1 -19.9°
